{"data":{"norad_id":64898,"intl_designator":"2025-154K","name":"SKYKRAFT-4D","alt_names":[],"object_type":"PAYLOAD","status":"ACTIVE","operator":null,"country":"AUS","launch_date":"2025-07-23","launch_site_code":"AFWTR","launch_vehicle":null,"mission":null,"orbit_class":"UNKNOWN","rcs_meters":null,"size_class":null,"mass_kg":null,"dimensions":null,"purposes":[],"wikipedia_slug":null,"has_3d_model":false,"image_url":null,"decayed_at":null,"tle_current":{"epoch":"2026-05-25T02:26:33.315072Z","epoch_age_seconds":63572,"freshness":"FRESH","line1":"1 64898U 25154K   26145.10177448  .00005322  00000+0  48052-3 0  9995","line2":"2 64898  97.6679 209.7372 0003733 345.9178  14.1938 14.95906845 43840","mean_motion":14.95906845,"eccentricity":0.0003733,"inclination_deg":97.6679,"raan_deg":209.7372,"arg_perigee_deg":345.9178,"mean_anomaly_deg":14.1938,"bstar":0.00048052,"rev_number":4384,"period_min":96.262678709783,"perigee_km":576.96210321088,"apogee_km":582.15671935154,"semimajor_km":6957.6964112812,"source":"CELESTRAK","updated_at":"2026-05-25T13:38:04.897532Z"}}}